NIMBUS 2 DEB, 28977

Orbit data source: Space-Track

NIMBUS 2 DEB, 28977 is space debris in SSO originally from a launch on Sun, 15 May 1966 UTC launched from the Air Force Western Test Range (AFWTR). Debris objects in space refer to the collection of defunct objects orbiting the Earth. Examples of debris include non-operational satellites, rocket bodies, and fragments generated from explosions, collisions, or faulty payload assembly.

Loading next visibility...
Identifier
28977, 1966-040AN
Orbit
SSO
Country
Flag of USUS
Related business
Manufacturer
Unknown
Mission
Spacecraft
Bus & Motor
Unknown
Mass
Unknown
Launch date (UTC)
1966-05-15 (60 years ago)
Launch vehicle
Unknown
Launch site
Air Force Western Test Range (AFWTR)
Object type
Payload
Rocket body
Debris
Shape & HBR
Unknown shape, 0.1 m
Radar Cross Section
Small (<0.1 m²)

Expand to show TLE details & history
Last TLE update: 2 days ago

TLE from 2 days ago
0 NIMBUS 2 DEB
1 28977U 66040AN  26139.67759291  .00000942  00000-0  14657-2 0  9996
2 28977 100.4665 100.5270 0051034 122.5577  53.2045 13.53356058  8910
Epoch: 2026-05-19T16:15Z
TLE epoch observation values (Epoch: 2026-05-19T16:15:44.027Z)
Latitude
3.6149°
Longitude
159.91074°
Altitude
1,039.688 km
Speed
7.343 km/s
True Right ascension
18h 44m 46s
True Declination
3° 35' 39"
Sunlit
Object was in full shadow at epoch
Visualization orbit readout
Latitude
Unknown
Longitude
Unknown
Altitude
Unknown
Speed
Unknown
Apparent Right ascension
Unknown
Apparent Declination
Unknown
Sunlit
N/A
Visualization observer readout
Local Sidereal Time
19:58:04
Azimuth
Unknown
Elevation
Unknown
Doppler factor
Unknown
Orbital elements
Apogee altitude
1,095.22 km
Perigee altitude
1,019.328 km
Semi-major axis
7,435.411 km
Eccentricity
0.0051
Inclination
100.4665°
RAAN
100.527°
Arg. of periapsis
122.5577°
True anomaly
53.67459°
Mean anomaly
53.2045°
Eccentric anomaly
53.43937°
Mean motion
3.38521 °/min
Orbital period
106.34 mins
BSTAR
0.0014657
Loading maneuver chart data...
Computing Atmospheric mass density...
Loading historical data...
Loading historical data...
Loading historical data...
Loading historical data...
Loading historical data...
Loading historical data...
Loading historical data...

Documentation

Showing up to 5 results
|